Flag for Brazil Weather past 2 weeks in Brasilia, Distrito Federal, Brazil

Now
59 °F

Sunny.


Feels Like: 59 °F
Forecast: 54 / 80 °F
Wind: No wind

Location: Brasilia Aeroporto

Current Time: Aug 5, 2015 at 8:33:00 AM

Latest Report: Aug 5, 2015 at 8:00 AM


Visibility: 10 mi

Pressure: 30.21 "Hg (26.54 "Hg at 1091m altitude)

Humidity: 63%

Dew point: 46 °F

Location of BrasiliaLocation

Historic Weather in Brasilia — Graph

°F

Brasilia temperature yesterday

Maximum temperature yesterday: 81 °F (at 2:00 PM)
Minimum temperature yesterday: 46 °F (at 6:00 AM)
Average temperature yesterday: 64 °F

Past Weeks' High & Low Weather Summary

 TemperatureHumidityPressure
High82 °F (Jul 21, 2:00 PM)94% (Jul 26, 6:00 AM)30.30 "Hg (Jul 26, 6:00 AM)
Low46 °F (Aug 4, 6:00 AM)21% (Aug 4, 3:00 PM)30.07 "Hg (Jul 27, 3:00 PM)
Average68 °F53%30.18 "Hg
* Reported Jul 21 7:00 AM — Aug 5 7:00 AM, Brasilia, Weather by CustomWeather, © 2015

Note: Actual official high and low records may vary slightly from our data, if they occured in-between our weather recording intervals... More about our weather records

Advertising

Brasilia weather history for previous 24 hours

 ConditionsComfort  
Time TempWeatherWind HumidityBarometerVisibility
7:00 AM
Wed, Aug 5
46 °FSunny.No wind87%30.18 "Hg10 mi
6:00 AM52 °FClear.No wind72%30.15 "Hg10 mi
5:00 AM48 °FClear.No wind87%30.15 "Hg10 mi
4:00 AM52 °FClear.No wind77%30.15 "Hg10 mi
3:00 AM50 °FClear.No wind82%30.15 "Hg10 mi
2:00 AM54 °FClear.2 mph72%30.15 "Hg10 mi
1:00 AM55 °FClear.2 mph67%30.18 "Hg10 mi
12:00 AM57 °FClear.5 mph63%30.21 "Hg10 mi
11:00 PM
Tue, Aug 4
57 °FClear.No wind63%30.21 "Hg10 mi
10:00 PM57 °FClear.2 mph63%30.21 "Hg10 mi
9:00 PM59 °FClear.No wind59%30.18 "Hg10 mi
8:00 PM63 °FClear.2 mph52%30.18 "Hg10 mi
7:00 PM70 °FClear.6 mph38%30.15 "Hg10 mi
6:00 PM73 °FSunny.6 mph33%30.15 "Hg10 mi
5:00 PM81 °FSunny.7 mph23%30.12 "Hg10 mi
4:00 PM81 °FSunny.10 mph23%30.15 "Hg10 mi
3:00 PM81 °FSunny.7 mph21%30.15 "Hg10 mi
2:00 PM81 °FSunny.7 mph24%30.15 "Hg10 mi
1:00 PM79 °FSunny.9 mph26%30.21 "Hg10 mi
12:00 PM77 °FSunny.No wind30%30.24 "Hg10 mi
11:00 AM75 °FSunny.12 mph31%30.24 "Hg10 mi
10:00 AM75 °FSunny.12 mph29%30.24 "Hg10 mi
9:00 AM68 °FSunny.No wind43%30.24 "Hg10 mi
8:00 AM59 °FSunny.No wind68%30.24 "Hg10 mi
Weather by CustomWeather, © 2015

See weather overviewHow to use our weather pages